Location: Caltech
(34.1382°N, 118.1253°W)
Time: 13:44:06
(UTC-07:00)

Cosmos 1484 Rocket - Visible Passes

Search period start: 04 July 2015 00:00
Search period end: 14 July 2015 00:00
Orbit: 510 x 568 km, 97.4° (Epoch: 03 July)

Date Brightness Start Highest point End Pass type
(mag) Time Alt. Az. Time Alt. Az. Time Alt. Az.
11 Jul 6.1 21:05:28 10° W 21:05:51 10° W 21:05:57 10° W visible
12 Jul 5.7 20:56:16 10° WSW 20:58:06 13° W 20:59:45 10° WNW visible
13 Jul 5.5 20:47:56 10° SW 20:50:22 16° W 20:52:41 10° NW visible
